Location: Unspecified
(0.0000°N, 0.0000°E)
Time: 08:29:01
(UTC+00:00)

OTV 5 (USA 277) - Pass Details

Date: 14 February 2018
Orbit: 404 x 417 km, 43.0° (Epoch: 07 September)

Event Time Altitude Azimuth Distance (km) Brightness Sun altitude
Exits shadow 04:17:31 - 155° (SSE) 1,509 ? -28.3°
Reaches altitude 10° 04:18:06 10° 146° (SE) 1,450 ? -28.2°
Maximum altitude 04:18:40 10° 136° (SE) 1,430 ? -28.1°
Drops below altitude 10° 04:19:14 10° 126° (SE) 1,449 ? -27.9°
Sets 04:22:59 0° 82° (E) 2,305 ? -27.0°
